Stündliche Wetter Abramivs'ka Dolyna

Heute, 5 August, Donnerstag

Zeit Temperatur Niederschläge Wind Luftdruck Luftfeuchtigkeit
00:00 +20°C° 0.3 mm 1 m/S 742 mmHg 90%
01:00 +19°C° 0.3 mm 1 m/S 742 mmHg 90%
02:00 +18°C° 0 mm 2 m/S 742 mmHg 90%
03:00 +18°C° 0 mm 2 m/S 741 mmHg 91%
04:00 +18°C° 0 mm 2 m/S 741 mmHg 91%
05:00 +19°C° 0 mm 1 m/S 741 mmHg 91%
06:00 +19°C° 0 mm 2 m/S 741 mmHg 87%
07:00 +20°C° 0 mm 2 m/S 741 mmHg 83%
08:00 +23°C° 0 mm 2 m/S 741 mmHg 77%
09:00 +25°C° 0 mm 3 m/S 741 mmHg 71%
10:00 +26°C° 0 mm 3 m/S 740 mmHg 64%
11:00 +28°C° 0 mm 4 m/S 740 mmHg 58%
12:00 +29°C° 0.1 mm 4 m/S 740 mmHg 54%
13:00 +30°C° 0.1 mm 5 m/S 739 mmHg 49%
14:00 +32°C° 0.1 mm 5 m/S 739 mmHg 45%
15:00 +32°C° 0 mm 5 m/S 738 mmHg 45%
16:00 +33°C° 0 mm 5 m/S 737 mmHg 44%
17:00 +33°C° 0 mm 5 m/S 737 mmHg 44%
18:00 +30°C° 0.1 mm 4 m/S 736 mmHg 50%
19:00 +28°C° 0.1 mm 4 m/S 736 mmHg 56%
20:00 +26°C° 0.1 mm 3 m/S 736 mmHg 62%
21:00 +25°C° 1.4 mm 3 m/S 736 mmHg 70%
22:00 +23°C° 1.4 mm 4 m/S 736 mmHg 78%
23:00 +22°C° 1.4 mm 4 m/S 736 mmHg 86%

Morgen, 6 August, Freitag

Zeit Temperatur Niederschläge Wind Luftdruck Luftfeuchtigkeit
00:00 +22°C° 0.1 mm 5 m/S 735 mmHg 86%
01:00 +22°C° 0.1 mm 6 m/S 735 mmHg 85%
02:00 +22°C° 0.1 mm 6 m/S 734 mmHg 85%
03:00 +21°C° 0.3 mm 5 m/S 734 mmHg 88%
04:00 +21°C° 0.3 mm 3 m/S 734 mmHg 90%
05:00 +20°C° 0.3 mm 2 m/S 733 mmHg 93%
06:00 +22°C° 0.2 mm 3 m/S 734 mmHg 87%
07:00 +23°C° 0.2 mm 4 m/S 734 mmHg 82%
08:00 +25°C° 0.2 mm 5 m/S 734 mmHg 77%
09:00 +26°C° 0 mm 5 m/S 734 mmHg 70%
10:00 +27°C° 0 mm 5 m/S 734 mmHg 63%
11:00 +29°C° 0 mm 4 m/S 734 mmHg 56%
12:00 +29°C° 0.1 mm 4 m/S 734 mmHg 53%
13:00 +30°C° 0.1 mm 4 m/S 734 mmHg 49%
14:00 +30°C° 0.1 mm 3 m/S 734 mmHg 46%
15:00 +28°C° 2 mm 4 m/S 734 mmHg 58%
16:00 +25°C° 2 mm 5 m/S 734 mmHg 71%
17:00 +22°C° 2 mm 6 m/S 734 mmHg 83%
18:00 +21°C° 1.8 mm 5 m/S 735 mmHg 85%
19:00 +20°C° 1.8 mm 4 m/S 735 mmHg 87%
20:00 +19°C° 1.8 mm 3 m/S 736 mmHg 89%
21:00 +18°C° 0 mm 3 m/S 736 mmHg 89%
22:00 +18°C° 0 mm 3 m/S 736 mmHg 89%
23:00 +17°C° 0 mm 4 m/S 737 mmHg 89%

übermorgen, 7 August, Samstag

Zeit Temperatur Niederschläge Wind Luftdruck Luftfeuchtigkeit
00:00 +17°C° 0 mm 3 m/S 737 mmHg 90%
01:00 +16°C° 0 mm 3 m/S 737 mmHg 90%
02:00 +14°C° 0 mm 3 m/S 738 mmHg 91%
03:00 +14°C° 0 mm 3 m/S 738 mmHg 91%
04:00 +15°C° 0 mm 2 m/S 739 mmHg 91%
05:00 +14°C° 0 mm 2 m/S 739 mmHg 91%
06:00 +16°C° 0 mm 2 m/S 739 mmHg 84%
07:00 +17°C° 0 mm 2 m/S 740 mmHg 77%
08:00 +19°C° 0 mm 2 m/S 740 mmHg 70%
09:00 +20°C° 0 mm 2 m/S 740 mmHg 62%
10:00 +22°C° 0 mm 3 m/S 740 mmHg 54%
11:00 +25°C° 0 mm 3 m/S 741 mmHg 46%
12:00 +25°C° 0 mm 3 m/S 740 mmHg 45%
13:00 +26°C° 0 mm 3 m/S 740 mmHg 43%
14:00 +27°C° 0 mm 2 m/S 740 mmHg 41%
15:00 +27°C° 0 mm 2 m/S 740 mmHg 42%
16:00 +27°C° 0 mm 2 m/S 741 mmHg 43%
17:00 +27°C° 0 mm 1 m/S 741 mmHg 44%
18:00 +26°C° 0 mm 1 m/S 741 mmHg 49%
19:00 +24°C° 0 mm 1 m/S 741 mmHg 53%
20:00 +23°C° 0 mm 1 m/S 741 mmHg 58%
21:00 +22°C° 0 mm 1 m/S 741 mmHg 60%
22:00 +21°C° 0 mm 1 m/S 742 mmHg 62%
23:00 +20°C° 0 mm 1 m/S 742 mmHg 64%

8 August, Sonntag

Zeit Temperatur Niederschläge Wind Luftdruck Luftfeuchtigkeit
00:00 +20°C° 0 mm 1 m/S 742 mmHg 65%
01:00 +20°C° 0 mm 1 m/S 742 mmHg 66%
02:00 +19°C° 0 mm 1 m/S 742 mmHg 67%
03:00 +19°C° 0 mm 1 m/S 742 mmHg 68%
04:00 +19°C° 0 mm 1 m/S 743 mmHg 69%
05:00 +18°C° 0 mm 1 m/S 743 mmHg 70%
06:00 +20°C° 0 mm 1 m/S 743 mmHg 65%
07:00 +21°C° 0 mm 2 m/S 743 mmHg 60%
08:00 +24°C° 0 mm 2 m/S 743 mmHg 55%
09:00 +26°C° 0 mm 3 m/S 743 mmHg 51%
10:00 +27°C° 0 mm 3 m/S 743 mmHg 46%
11:00 +29°C° 0 mm 4 m/S 743 mmHg 42%
12:00 +30°C° 0 mm 4 m/S 743 mmHg 39%
13:00 +30°C° 0 mm 3 m/S 743 mmHg 36%
14:00 +31°C° 0 mm 3 m/S 743 mmHg 33%
15:00 +31°C° 0 mm 3 m/S 743 mmHg 34%
16:00 +31°C° 0 mm 3 m/S 743 mmHg 35%
17:00 +31°C° 0 mm 2 m/S 743 mmHg 37%
18:00 +29°C° 0 mm 2 m/S 743 mmHg 41%
19:00 +27°C° 0 mm 2 m/S 743 mmHg 45%
20:00 +25°C° 0 mm 2 m/S 743 mmHg 50%
21:00 +24°C° 0 mm 2 m/S 743 mmHg 51%
22:00 +23°C° 0 mm 2 m/S 744 mmHg 53%
23:00 +22°C° 0 mm 3 m/S 744 mmHg 55%

9 August, Montag

Zeit Temperatur Niederschläge Wind Luftdruck Luftfeuchtigkeit
00:00 +21°C° 0 mm 3 m/S 744 mmHg 56%
01:00 +21°C° 0 mm 3 m/S 744 mmHg 57%
02:00 +21°C° 0 mm 3 m/S 744 mmHg 58%
03:00 +21°C° 0 mm 3 m/S 743 mmHg 58%
04:00 +20°C° 0 mm 3 m/S 743 mmHg 58%
05:00 +20°C° 0 mm 3 m/S 743 mmHg 58%
06:00 +22°C° 0 mm 3 m/S 744 mmHg 55%
07:00 +24°C° 0 mm 3 m/S 744 mmHg 52%
08:00 +26°C° 0 mm 3 m/S 744 mmHg 49%
09:00 +27°C° 0 mm 3 m/S 744 mmHg 46%
10:00 +29°C° 0 mm 3 m/S 745 mmHg 43%
11:00 +30°C° 0 mm 3 m/S 745 mmHg 40%
12:00 +31°C° 0 mm 2 m/S 745 mmHg 39%
13:00 +32°C° 0 mm 2 m/S 745 mmHg 37%
14:00 +34°C° 0 mm 2 m/S 744 mmHg 36%
15:00 +34°C° 0 mm 2 m/S 744 mmHg 36%
16:00 +33°C° 0 mm 1 m/S 744 mmHg 36%
17:00 +33°C° 0 mm 1 m/S 744 mmHg 37%
18:00 +31°C° 0 mm 1 m/S 744 mmHg 42%
19:00 +29°C° 0 mm 1 m/S 744 mmHg 47%
20:00 +27°C° 0 mm 1 m/S 745 mmHg 52%
21:00 +26°C° 0.2 mm 1 m/S 745 mmHg 58%
22:00 +24°C° 0.2 mm 2 m/S 745 mmHg 63%
23:00 +23°C° 0.2 mm 2 m/S 745 mmHg 69%

10 August, Dienstag

Zeit Temperatur Niederschläge Wind Luftdruck Luftfeuchtigkeit
00:00 +21°C° 0.5 mm 2 m/S 745 mmHg 73%
01:00 +21°C° 0.5 mm 2 m/S 745 mmHg 78%
02:00 +20°C° 0.5 mm 2 m/S 745 mmHg 82%
03:00 +21°C° 0.4 mm 1 m/S 745 mmHg 83%
04:00 +20°C° 0.4 mm 1 m/S 745 mmHg 84%
05:00 +20°C° 0.4 mm 1 m/S 745 mmHg 86%
06:00 +21°C° 0.5 mm 1 m/S 744 mmHg 82%
07:00 +22°C° 0.5 mm 1 m/S 744 mmHg 79%
08:00 +23°C° 0.5 mm 1 m/S 744 mmHg 76%
09:00 +24°C° 0.5 mm 1 m/S 745 mmHg 75%
10:00 +24°C° 0.5 mm 1 m/S 745 mmHg 73%
11:00 +25°C° 0.5 mm 2 m/S 745 mmHg 72%
12:00 +26°C° 0.1 mm 2 m/S 745 mmHg 69%
13:00 +26°C° 0.1 mm 3 m/S 744 mmHg 66%
14:00 +27°C° 0.1 mm 3 m/S 744 mmHg 63%
15:00 +27°C° 0 mm 3 m/S 744 mmHg 62%
16:00 +28°C° 0 mm 2 m/S 743 mmHg 61%
17:00 +28°C° 0 mm 1 m/S 743 mmHg 60%
18:00 +26°C° 1 mm 2 m/S 743 mmHg 69%
19:00 +24°C° 1 mm 2 m/S 743 mmHg 77%
20:00 +21°C° 1 mm 2 m/S 743 mmHg 86%
21:00 +21°C° 1.6 mm 2 m/S 743 mmHg 88%
22:00 +20°C° 1.6 mm 2 m/S 743 mmHg 91%
23:00 +20°C° 1.6 mm 2 m/S 743 mmHg 93%
Mehr zeigen

Wir brauchen deine Erlaubnis

Meteoprog und unser Service Anbieter werden persönliche Daten aufbewahren, so wie Cookies, Geräte Bezeichnung oder ähnliche Technologien von deinem Gerät und Prozess, so wie Persönliche Daten Inhalte und Werbungen, genauso wie social Media und den Verkehr zu analysieren.

  • Aufbewahrung und/oder Zugang zu deiner Geräte Informationen.

    Cookies, Geräte Bezeichnung oder andere Informationen, können aufbewahrt oder Zugang zu deinem Gerät erhalten, für den Grund, der oben angegeben wird.

  • Personalisierte Werbung und Inhalte, Messungen, Einblick in das Publikum und Produkt Entwicklung.

    Werbungen und Inhalte können personalisiert werden, basierend auf ein Profil. Mehr Daten können besser personalisierte Werbungen und Inhalte hinzufügen. Werbung und Inhalte können gezeigt und gemessen werden. Einblicke über das Publikum, welche die Werbung gesehen haben und den Inhalt, können abgeleitet werden. So wie Daten können genutzt werden, um es zu verbessern oder die Benutzer Erfahrung zu verbessern das System und die Software.

Wenn du “Ich stimme zu” klickst, erlaubst du uns, die Cookies zu benutzen die Geräte Bezeichnung, den Web oder ähnliche Technologien zu benutzen. Deine Settings, können in deinem Gerät bei deinem Browser geändert werden.

Für den bestimmten Zweck, berechtigten Interessen beruhen darauf, mehr als auf den Inhalt. Du kannst mehr darüber in unseren Privaten und Cookie Politik lesen.